Showing default

KUIPER-00015, 63731

Orbit data source: Space-Track

KUIPER-00015, 63731 is a payload satellite owned by Kuiper Systems (US) in LEO that was launched on Mon, 28 Apr 2025 UTC via an ATLAS V 551 launch vehicle from the Air Force Eastern Test Range (AFETR). Payload-class satellites include a variety of spacecraft equipped with specific instruments for various scientific and technological missions. These include communications satellites like Starlink; space stations such as the ISS; scientific satellites like the Hubble; Earth observation satellites from companies like Planet Labs, Umbra, and HawkEye 360; GPS; miniature CubeSats for education and research; and military/defense satellites.

Loading next visibility...
Identifier
63731, 2025-088H
Orbit
LEO
Country
Flag of USUS
Related business
Manufacturer
Kuiper Systems
Mission
Operational Commercial Communications
Bus & Motor
KUIPER, Unknown motor
Mass
~490 kg wet, ~490 kg dry
Launch date (UTC)
2025-04-28 (8 months ago)
Launch vehicle
ATLAS V 551
Launch site
Air Force Eastern Test Range (AFETR)
Object type
Payload
Rocket body
Debris
Shape & HBR
Box + 2 Pan, 3.4 m
Radar Cross Section
2.326 m², Large (>1 m²)

Expand to show TLE details & history
Last TLE update: 21 hours ago

TLE from 21 hours ago
0 KUIPER-00015
1 63731U 25088H   25348.79715918  .00002943  00000-0  39544-3 0  9998
2 63731  51.8977 135.4030 0010981 152.9736 207.1801 14.81991453 35100
Epoch: 2025-12-14T19:07Z
TLE epoch observation values (Epoch: 2025-12-14T19:07:54.553Z)
Latitude
-0°
Longitude
124.72077°
Altitude
630.633 km
Speed
7.541 km/s
True Right ascension
09h 01m 36s
True Declination
0° 00' 00"
Sunlit
Object was in full shadow at epoch
Visualization orbit readout
Latitude
Unknown
Longitude
Unknown
Altitude
Unknown
Speed
Unknown
Apparent Right ascension
Unknown
Apparent Declination
Unknown
Sunlit
N/A
Visualization observer readout
Local Sidereal Time
15:12:31
Azimuth
Unknown
Elevation
Unknown
Doppler factor
Unknown
Orbital elements
Apogee altitude
631.186 km
Perigee altitude
615.809 km
Semi-major axis
7,001.634 km
Eccentricity
0.0011
Inclination
51.8977°
RAAN
135.403°
Arg. of periapsis
152.9736°
True anomaly
207.12269°
Mean anomaly
207.1801°
Eccentric anomaly
207.15139°
Mean motion
3.70462 °/min
Orbital period
97.18 mins
BSTAR
0.00039544
Loading maneuver chart data...
Computing Atmospheric mass density...
Loading historical data...
Loading historical data...
Loading historical data...
Loading historical data...
Loading historical data...
Loading historical data...
Loading historical data...

Documentation

Showing up to 5 results
|